Surface/Precipitation History
04/16/2014 09:28  to  4/17/2014 09:28
Change End Date:
Date/Time
(MDT)
Sf
Temp Chem Water Layer Surface Precipitation
Sf Sub Frz Factor Pct Depth IcePct Cond Salin Type Intens Accum Rate
04/17/2014 09:15 Wet 42.8F 44F 32F 95 0% 0.10 in 0% 0 mhos 9 Unidentified Moderate 0.01 in 0.0 iph
04/17/2014 09:09 Wet 41.9F 44F 32F 95 0% 0.10 in 0% 0 mhos 11 Unidentified Moderate 0.01 in 0.0 iph
04/17/2014 09:00 Wet 41.7F 44F 32F 95 0% 0.10 in 0% 0 mhos 9 Unidentified Moderate 0.01 in 0.0 iph
04/17/2014 08:59 Wet 41.7F 44F 32F 95 0% 0.20 in 0% 0 mhos 9 Unidentified Moderate 0.01 in 0.0 iph
04/17/2014 08:49 Wet 41.4F 44F 32F 95 0% 0.10 in 0% 0 mhos 10 Unidentified Moderate 0.01 in 0.0 iph
04/17/2014 08:45 Wet 41.2F 44F 32F 95 0% 0.10 in 0% 0 mhos 14 Unidentified Moderate 0.01 in 0.0 iph
04/17/2014 08:39 Wet 40.8F 44F 32F 95 0% 0.10 in 0% 0 mhos 13 Unidentified Moderate 0.01 in 0.0 iph
04/17/2014 08:30 Wet 40.6F 44F 32F 95 0% 0.10 in 0% 0 mhos 15 Unidentified Moderate 0.01 in 0.0 iph
04/17/2014 08:29 Wet 40.8F 44F 32F 95 0% 0.10 in 0% 0 mhos 14 Unidentified Moderate 0.01 in 0.0 iph
04/17/2014 08:19 Wet 41.0F 44F 32F 95 0% 0.10 in 0% 0 mhos 11 Unidentified Moderate 0.01 in 0.0 iph
04/17/2014 08:15 Wet 40.6F 44F 32F 95 0% 0.10 in 0% 0 mhos 17 Unidentified Moderate 0.01 in 0.0 iph
04/17/2014 08:08 Wet 40.5F 44F 32F 95 0% 0.00 in 0% 0 mhos 19 Unidentified Moderate 0.01 in 0.0 iph
04/17/2014 08:00 Wet 40.1F 44F 32F 95 0% 0.00 in 0% 0 mhos 18 Unidentified Moderate 0.01 in 0.0 iph
04/17/2014 07:58 Wet 40.1F 44F 32F 95 0% 0.10 in 0% 0 mhos 16 Unidentified Moderate 0.01 in 0.0 iph
04/17/2014 07:48 Wet 39.6F 44F 32F 95 0% 0.10 in 0% 0 mhos 17 None None 0.01 in 0.0 iph
Date/Time
(MDT)
Sf
Temp Chem Water Layer Surface Precipitation
Sf Sub Frz Factor Pct Depth IcePct Cond Salin Type Intens Accum Rate
04/17/2014 07:45 Wet 39.6F 44F 32F 95 0% 0.10 in 0% 0 mhos 18 None None 0.01 in 0.0 iph
04/17/2014 07:38 Wet 39.6F 44F 32F 95 0% 0.10 in 0% 0 mhos 14 None None 0.01 in 0.0 iph
04/17/2014 07:30 Wet 39.4F 44F 32F 95 0% 0.10 in 0% 0 mhos 18 None None 0.01 in 0.0 iph
04/17/2014 07:28 Wet 39.6F 44F 32F 95 0% 0.10 in 0% 0 mhos 13 None None 0.01 in 0.0 iph
04/17/2014 07:18 Wet 39.4F 44F 32F 95 0% 0.10 in 0% 0 mhos 20 Unidentified Moderate 0.01 in 0.0 iph
04/17/2014 07:15 Wet 39.2F 44F 32F 95 0% 0.10 in 0% 0 mhos 21 None None 0.01 in 0.0 iph
04/17/2014 07:08 Wet 39.4F 44F 32F 95 0% 0.10 in 0% 0 mhos 16 None None 0.01 in 0.0 iph
04/17/2014 07:00 Wet 39.2F 44F 32F 95 0% 0.00 in 0% 0 mhos 28 None None 0.01 in 0.0 iph
04/17/2014 06:58 Wet 39.0F 45F 32F 95 0% 0.00 in 0% 0 mhos 27 Unidentified Moderate 0.01 in 0.0 iph
04/17/2014 06:48 Wet 39.2F 44F 32F 95 0% 0.00 in 0% 0 mhos 27 Unidentified Moderate 0.01 in 0.0 iph
04/17/2014 06:45 Wet 39.4F 45F 32F 95 0% 0.00 in 0% 0 mhos 26 None None 0.01 in 0.0 iph
04/17/2014 06:38 Wet 39.4F 45F 32F 95 0% 0.00 in 0% 0 mhos 23 Unidentified Moderate 0.01 in 0.0 iph
04/17/2014 06:30 Wet 39.2F 44F 32F 90 0% 0.00 in 0% 0 mhos 17 Unidentified Moderate 0.01 in 0.0 iph
04/17/2014 06:28 Wet 39.2F 44F 32F 95 0% 0.00 in 0% 0 mhos 25 None None 0.01 in 0.0 iph
04/17/2014 06:18 Wet 39.2F 45F 32F 95 0% 0.00 in 0% 0 mhos 26 Unidentified Moderate 0.01 in 0.0 iph
Date/Time
(MDT)
Sf
Temp Chem Water Layer Surface Precipitation
Sf Sub Frz Factor Pct Depth IcePct Cond Salin Type Intens Accum Rate
04/17/2014 06:15 Wet 39.2F 45F 32F 95 0% 0.00 in 0% 0 mhos 30 Unidentified Moderate 0.01 in 0.0 iph
04/17/2014 06:08 Wet 39.0F 45F 32F 95 0% 0.00 in 0% 0 mhos 44 Unidentified Moderate 0.01 in 0.0 iph
04/17/2014 06:00 Wet 39.2F 45F 32F 95 0% 0.00 in 0% 0 mhos 34 Unidentified Moderate 0.01 in 0.0 iph
04/17/2014 05:58 Wet 39.2F 45F 32F 95 0% 0.00 in 0% 0 mhos 34 Unidentified Moderate 0.01 in 0.0 iph
04/17/2014 05:48 Wet 39.2F 45F 32F 95 0% 0.00 in 0% 1 mhos 47 None None 0.01 in 0.0 iph
04/17/2014 05:45 Wet 39.4F 45F 32F 95 0% 0.00 in 0% 1 mhos 59 None None 0.01 in 0.0 iph
04/17/2014 05:38 Wet 39.4F 45F 32F 95 0% 0.00 in 0% 1 mhos 65 None None 0.01 in 0.0 iph
04/17/2014 05:30 Wet 39.4F 45F 32F 90 0% 0.00 in 0% 0 mhos 45 Unidentified Moderate 0.01 in 0.0 iph
04/17/2014 05:28 Wet 39.4F 45F 32F 95 0% 0.00 in 0% 0 mhos 39 Unidentified Moderate 0.01 in 0.0 iph
04/17/2014 05:18 Wet 39.4F 45F 32F 95 0% 0.00 in 0% 1 mhos 59 Unidentified Moderate 0.01 in 0.0 iph
04/17/2014 05:15 Wet 39.4F 45F 32F 95 0% 0.00 in 0% 0 mhos 41 Unidentified Moderate 0.01 in 0.0 iph
04/17/2014 05:08 Wet 39.4F 45F 32F 95 0% 0.00 in 0% 1 mhos 79 Unidentified Moderate 0.01 in 0.0 iph
04/17/2014 04:58 Wet 39.4F 45F 32F 95 0% 0.00 in 0% 1 mhos 66 None None 0.01 in 0.0 iph
04/17/2014 04:48 Wet 39.4F 45F 32F 95 0% 0.00 in 0% 1 mhos 90 None None 0.01 in 0.0 iph
04/17/2014 04:45 Wet 39.4F 45F 32F 95 0% 0.00 in 0% 1 mhos 85 None None 0.01 in 0.0 iph
Date/Time
(MDT)
Sf
Temp Chem Water Layer Surface Precipitation
Sf Sub Frz Factor Pct Depth IcePct Cond Salin Type Intens Accum Rate
04/17/2014 04:38 Wet 39.4F 45F 32F 95 0% 0.00 in 0% 1 mhos 67 None None 0.01 in 0.0 iph
04/17/2014 04:30 Wet 39.2F 45F 32F 95 0% 0.00 in 0% 1 mhos 68 None None 0.01 in 0.0 iph
04/17/2014 04:28 Wet 39.4F 45F 32F 95 0% 0.00 in 0% 1 mhos 64 None None 0.01 in 0.0 iph
04/17/2014 04:18 Wet 39.2F 45F 32F 95 0% 0.00 in 0% 1 mhos 88 None None 0.01 in 0.0 iph
04/17/2014 04:15 Wet 39.4F 45F 32F 95 0% 0.00 in 0% 1 mhos 83 None None 0.01 in 0.0 iph
04/17/2014 04:08 Wet 39.4F 45F 32F 95 0% 0.00 in 0% 1 mhos 62 None None 0.01 in 0.0 iph
04/17/2014 04:00 Wet 39.4F 45F 32F 95 0% 0.00 in 0% 1 mhos 85 None None 0.01 in 0.0 iph
04/17/2014 03:58 Wet 39.4F 45F 32F 95 0% 0.00 in 0% 1 mhos 116 None None 0.01 in 0.0 iph
04/17/2014 03:48 Wet 39.4F 45F 32F 95 0% 0.00 in 0% 1 mhos 110 None None 0.01 in 0.0 iph
04/17/2014 03:45 Wet 39.4F 45F 32F 95 0% 0.00 in 0% 1 mhos 107 None None 0.01 in 0.0 iph
04/17/2014 03:38 Wet 39.4F 45F 32F 95 0% 0.00 in 0% 1 mhos 102 Unidentified Slight 0.01 in 0.0 iph
04/17/2014 03:30 Wet 39.4F 45F 32F 95 0% 0.00 in 0% 1 mhos 112 None None 0.01 in 0.0 iph
04/17/2014 03:28 Wet 39.6F 45F 32F 95 0% 0.00 in 0% 1 mhos 106 None None 0.01 in 0.0 iph
04/17/2014 03:18 Wet 39.6F 45F 32F 95 0% 0.00 in 0% 1 mhos 85 None None 0.01 in 0.0 iph
04/17/2014 03:15 Wet 39.7F 45F 32F 95 0% 0.00 in 0% 1 mhos 78 Unidentified Slight 0.01 in 0.0 iph
Date/Time
(MDT)
Sf
Temp Chem Water Layer Surface Precipitation
Sf Sub Frz Factor Pct Depth IcePct Cond Salin Type Intens Accum Rate
04/17/2014 03:08 Wet 39.6F 45F 32F 95 1% 0.00 in 0% 2 mhos 169 Unidentified Moderate 0.01 in 0.0 iph
04/17/2014 02:57 Wet 39.6F 45F 32F 95 1% 0.00 in 0% 2 mhos 152 Unidentified Slight 0.01 in 0.0 iph
04/17/2014 02:47 Wet 39.7F 45F 32F 95 0% 0.00 in 0% 2 mhos 136 None None 0.01 in 0.0 iph
04/17/2014 02:45 Wet 39.7F 45F 32F 95 1% 0.00 in 0% 2 mhos 153 None None 0.01 in 0.0 iph
04/17/2014 02:37 Wet 39.7F 45F 32F 95 0% 0.00 in 0% 2 mhos 145 Unidentified Moderate 0.01 in 0.0 iph
04/17/2014 02:30 Wet 39.9F 45F 32F 95 0% 0.00 in 0% 1 mhos 118 Unidentified Slight 0.01 in 0.0 iph
04/17/2014 02:27 Wet 40.1F 45F 32F 95 0% 0.00 in 0% 1 mhos 111 Unidentified Slight 0.01 in 0.0 iph
04/17/2014 02:17 Wet 40.1F 45F 32F 95 0% 0.00 in 0% 1 mhos 104 Unidentified Slight 0.01 in 0.0 iph
04/17/2014 02:15 Wet 40.1F 45F 32F 95 0% 0.00 in 0% 1 mhos 107 None None 0.01 in 0.0 iph
04/17/2014 02:07 Wet 40.1F 45F 32F 95 0% 0.00 in 0% 1 mhos 110 Unidentified Slight 0.01 in 0.0 iph
04/17/2014 01:57 Wet 40.3F 45F 32F 95 0% 0.00 in 0% 1 mhos 110 None None 0.01 in 0.0 iph
04/17/2014 01:47 Wet 40.3F 45F 32F 95 0% 0.00 in 0% 1 mhos 114 None None 0.01 in 0.0 iph
04/17/2014 01:45 Wet 40.3F 45F 32F 95 0% 0.00 in 0% 1 mhos 114 None None 0.01 in 0.0 iph
04/17/2014 01:37 Wet 40.1F 45F 32F 95 0% 0.00 in 0% 1 mhos 117 None None 0.01 in 0.0 iph
04/17/2014 01:30 Wet 40.1F 45F 32F 95 0% 0.00 in 0% 1 mhos 117 None None 0.01 in 0.0 iph
Date/Time
(MDT)
Sf
Temp Chem Water Layer Surface Precipitation
Sf Sub Frz Factor Pct Depth IcePct Cond Salin Type Intens Accum Rate
04/17/2014 01:27 Wet 40.1F 45F 32F 95 0% 0.00 in 0% 1 mhos 118 None None 0.01 in 0.0 iph
04/17/2014 01:17 Wet 40.5F 45F 32F 95 0% 0.00 in 0% 1 mhos 127 None None 0.01 in 0.0 iph
04/17/2014 01:15 Wet 40.3F 45F 32F 95 0% 0.00 in 0% 1 mhos 129 None None 0.01 in 0.0 iph
04/17/2014 01:07 Wet 40.3F 45F 32F 95 0% 0.00 in 0% 1 mhos 133 None None 0.01 in 0.0 iph
04/17/2014 01:00 Wet 40.5F 45F 32F 95 0% 0.00 in 0% 1 mhos 134 None None 0.01 in 0.0 iph
04/17/2014 00:57 Wet 40.3F 45F 32F 95 0% 0.00 in 0% 2 mhos 135 None None 0.01 in 0.0 iph
04/17/2014 00:47 Wet 40.6F 45F 32F 95 0% 0.00 in 0% 2 mhos 136 None None 0.01 in 0.0 iph
04/17/2014 00:45 Wet 40.6F 45F 32F 95 1% 0.00 in 0% 2 mhos 182 None None 0.01 in 0.0 iph
04/17/2014 00:37 Wet 40.5F 45F 32F 95 1% 0.00 in 0% 2 mhos 198 None None 0.01 in 0.0 iph
04/17/2014 00:30 Wet 40.5F 45F 32F 95 1% 0.00 in 0% 2 mhos 198 None None 0.01 in 0.0 iph
04/17/2014 00:27 Wet 40.6F 45F 32F 95 1% 0.00 in 0% 2 mhos 200 None None 0.01 in 0.0 iph
04/17/2014 00:17 Wet 40.6F 45F 32F 95 1% 0.00 in 0% 2 mhos 197 None None 0.01 in 0.0 iph
04/17/2014 00:16 Wet 40.6F 45F 32F 95 1% 0.00 in 0% 2 mhos 197 None None 0.01 in 0.0 iph
04/17/2014 00:07 Wet 40.6F 45F 32F 95 1% 0.00 in 0% 2 mhos 193 None None 0.01 in 0.0 iph
04/16/2014 23:57 Wet 40.8F 45F 32F 95 1% 0.00 in 0% 2 mhos 185 None None 0.01 in 0.0 iph
Date/Time
(MDT)
Sf
Temp Chem Water Layer Surface Precipitation
Sf Sub Frz Factor Pct Depth IcePct Cond Salin Type Intens Accum Rate
04/16/2014 23:47 Wet 40.6F 45F 32F 95 1% 0.00 in 0% 2 mhos 182 None None 0.01 in 0.0 iph
04/16/2014 23:45 Wet 40.8F 45F 32F 95 1% 0.00 in 0% 2 mhos 180 None None 0.01 in 0.0 iph
04/16/2014 23:37 Wet 40.8F 45F 32F 95 1% 0.00 in 0% 2 mhos 178 None None 0.01 in 0.0 iph
04/16/2014 23:30 Wet 40.8F 45F 32F 95 1% 0.00 in 0% 2 mhos 169 None None 0.01 in 0.0 iph
04/16/2014 23:26 Wet 41.0F 45F 32F 95 1% 0.00 in 0% 2 mhos 162 None None 0.01 in 0.0 iph
04/16/2014 23:16 Wet 41.0F 45F 32F 95 0% 0.00 in 0% 2 mhos 144 None None 0.01 in 0.0 iph
04/16/2014 23:15 Wet 40.8F 45F 32F 95 1% 0.00 in 0% 2 mhos 160 None None 0.01 in 0.0 iph
04/16/2014 23:06 Wet 41.0F 45F 32F 95 1% 0.00 in 0% 2 mhos 153 None None 0.01 in 0.0 iph
04/16/2014 23:00 Wet 41.0F 45F 32F 95 0% 0.00 in 0% 1 mhos 123 None None 0.01 in 0.0 iph
04/16/2014 22:56 Wet 41.2F 45F 32F 95 0% 0.00 in 0% 1 mhos 100 Unidentified Slight 0.01 in 0.0 iph
04/16/2014 22:46 Wet 41.2F 45F 32F 95 0% 0.00 in 0% 2 mhos 145 Unidentified Slight 0.01 in 0.0 iph
04/16/2014 22:45 Wet 41.2F 45F 32F 95 0% 0.00 in 0% 2 mhos 142 None None 0.01 in 0.0 iph
04/16/2014 22:36 Wet 41.4F 45F 32F 95 1% 0.00 in 0% 2 mhos 151 None None 0.01 in 0.0 iph
04/16/2014 22:30 Wet 41.4F 45F 32F 95 1% 0.00 in 0% 2 mhos 171 None None 0.01 in 0.0 iph
04/16/2014 22:26 Wet 41.7F 45F 32F 95 0% 0.00 in 0% 2 mhos 144 None None 0.01 in 0.0 iph
Date/Time
(MDT)
Sf
Temp Chem Water Layer Surface Precipitation
Sf Sub Frz Factor Pct Depth IcePct Cond Salin Type Intens Accum Rate
04/16/2014 22:16 Wet 41.7F 45F 32F 95 0% 0.00 in 0% 1 mhos 126 None None 0.01 in 0.0 iph
04/16/2014 22:15 Wet 41.7F 45F 32F 95 0% 0.00 in 0% 1 mhos 125 None None 0.01 in 0.0 iph
04/16/2014 22:06 Wet 41.7F 45F 32F 95 0% 0.00 in 0% 1 mhos 118 None None 0.01 in 0.0 iph
04/16/2014 21:56 Wet 41.9F 45F 32F 90 0% 0.00 in 0% 1 mhos 91 Unidentified Slight 0.01 in 0.0 iph
04/16/2014 21:46 Wet 42.1F 45F 32F 95 0% 0.00 in 0% 1 mhos 83 None None 0.01 in 0.0 iph
04/16/2014 21:45 Wet 41.9F 45F 32F 95 0% 0.00 in 0% 1 mhos 78 Unidentified Moderate 0.01 in 0.0 iph
04/16/2014 21:36 Wet 42.3F 45F 32F 95 0% 0.00 in 0% 1 mhos 95 None None 0.01 in 0.0 iph
04/16/2014 21:30 Wet 41.9F 45F 32F 95 0% 0.00 in 0% 1 mhos 93 Unidentified Moderate 0.01 in 0.0 iph
04/16/2014 21:26 Wet 41.9F 45F 32F 95 0% 0.00 in 0% 1 mhos 117 Unidentified Moderate 0.01 in 0.0 iph
04/16/2014 21:16 Wet 42.4F 45F 32F 95 1% 0.00 in 0% 2 mhos 167 Unidentified Moderate 0.01 in 0.0 iph
04/16/2014 21:15 Wet 42.6F 44F 32F 95 1% 0.00 in 0% 2 mhos 162 Unidentified Slight 0.01 in 0.0 iph
04/16/2014 21:06 Wet 43.0F 44F 32F 95 0% 0.00 in 0% 2 mhos 134 None None 0.01 in 0.0 iph
04/16/2014 21:00 Wet 43.2F 44F 32F 95 0% 0.00 in 0% 2 mhos 136 Unidentified Moderate 0.01 in 0.0 iph
04/16/2014 20:56 Wet 43.2F 44F 32F 95 0% 0.00 in 0% 2 mhos 135 None None 0.01 in 0.0 iph
04/16/2014 20:46 Wet 43.2F 44F 32F 95 0% 0.00 in 0% 1 mhos 80 Unidentified Moderate 0.01 in 0.0 iph
Date/Time
(MDT)
Sf
Temp Chem Water Layer Surface Precipitation
Sf Sub Frz Factor Pct Depth IcePct Cond Salin Type Intens Accum Rate
04/16/2014 20:45 Wet 43.5F 44F 32F 95 0% 0.00 in 0% 1 mhos 77 Unidentified Moderate 0.01 in 0.0 iph
04/16/2014 20:36 Wet 43.5F 44F 32F 95 0% 0.00 in 0% 1 mhos 80 None None 0.01 in 0.0 iph
04/16/2014 20:30 Wet 43.9F 44F 32F 95 0% 0.00 in 0% 1 mhos 82 None None 0.01 in 0.0 iph
04/16/2014 20:26 Wet 43.9F 44F 32F 95 0% 0.00 in 0% 1 mhos 86 None None 0.01 in 0.0 iph
04/16/2014 20:16 Wet 44.1F 44F 32F 90 0% 0.00 in 0% 1 mhos 87 Unidentified Moderate 0.01 in 0.0 iph
04/16/2014 20:15 Wet 44.1F 44F 32F 95 0% 0.00 in 0% 1 mhos 87 Unidentified Slight 0.01 in 0.0 iph
04/16/2014 20:06 Wet 44.8F 44F 32F 90 0% 0.00 in 0% 1 mhos 94 None None 0.01 in 0.0 iph
04/16/2014 20:00 Wet 45.0F 44F 32F 95 0% 0.00 in 0% 1 mhos 101 None None 0.02 in 0.0 iph
04/16/2014 19:56 Wet 45.1F 44F 32F 90 0% 0.00 in 0% 1 mhos 104 None None 0.02 in 0.0 iph
04/16/2014 19:46 Wet 45.7F 44F 32F 95 0% 0.00 in 0% 1 mhos 110 None None 0.04 in 0.0 iph
04/16/2014 19:45 Wet 45.7F 44F 32F 95 0% 0.00 in 0% 1 mhos 109 None None 0.04 in 0.0 iph
04/16/2014 19:36 Wet 46.0F 44F 32F 95 0% 0.00 in 0% 1 mhos 103 None None 0.04 in 0.0 iph
04/16/2014 19:30 Wet 45.9F 44F 32F 95 0% 0.00 in 0% 1 mhos 98 None None 0.04 in 0.0 iph
04/16/2014 19:26 Wet 46.0F 44F 32F 95 0% 0.00 in 0% 1 mhos 90 None None 0.04 in 0.0 iph
04/16/2014 19:16 Wet 46.6F 44F 32F 90 0% 0.00 in 0% 1 mhos 66 Unidentified Moderate 0.04 in 0.0 iph
Date/Time
(MDT)
Sf
Temp Chem Water Layer Surface Precipitation
Sf Sub Frz Factor Pct Depth IcePct Cond Salin Type Intens Accum Rate
04/16/2014 19:15 Wet 46.8F 44F 32F 90 0% 0.00 in 0% 1 mhos 62 Unidentified Moderate 0.04 in 0.0 iph
04/16/2014 19:06 Wet 47.7F 44F 32F 80 0% 0.00 in 0% 0 mhos 39 None None 0.04 in 0.0 iph
04/16/2014 19:00 Wet 47.7F 44F 32F 90 0% 0.10 in 0% 0 mhos 14 None None 0.04 in 0.0 iph
04/16/2014 18:56 Wet 47.8F 44F 32F 95 0% 0.10 in 0% 0 mhos 9 Snow Slight 0.04 in 0.0 iph
04/16/2014 18:46 Wet 49.1F 44F 32F 95 0% 0.00 in 0% 0 mhos 1 Unidentified Moderate 0.04 in 0.0 iph
04/16/2014 18:45 Wet 49.6F 44F 32F 90 0% 0.00 in 0% 0 mhos 1 Unidentified Moderate 0.04 in 0.0 iph
04/16/2014 18:36 Dry 51.4F 44F - - - - - 0 mhos 0 None None 0.04 in 0.0 iph
04/16/2014 18:30 Dry 52.0F 44F - - - - - 0 mhos 0 None None 0.05 in 0.0 iph
04/16/2014 18:26 Wet 52.5F 44F 32F 95 0% 0.00 in 0% 0 mhos 1 None None 0.05 in 0.0 iph
04/16/2014 18:15 Dry 54.3F 44F - - - - - 0 mhos 0 None None 0.08 in 0.0 iph
04/16/2014 18:15 Dry 54.3F 44F - - - - - 0 mhos 0 None None 0.09 in 0.0 iph
04/16/2014 18:05 Dry 55.0F 44F - - - - - 0 mhos 0 None None 0.09 in 0.0 iph
04/16/2014 18:00 Dry 55.9F 44F - - - - - 0 mhos 0 None None 0.09 in 0.0 iph
04/16/2014 17:55 Dry 57.0F 44F - - - - - 0 mhos 0 None None 0.09 in 0.0 iph
04/16/2014 17:45 Dry 58.3F 44F - - - - - 0 mhos 0 None None 0.09 in 0.0 iph
Date/Time
(MDT)
Sf
Temp Chem Water Layer Surface Precipitation
Sf Sub Frz Factor Pct Depth IcePct Cond Salin Type Intens Accum Rate
04/16/2014 17:45 Dry 58.3F 44F - - - - - 0 mhos 0 None None 0.09 in 0.0 iph
04/16/2014 17:35 Dry 60.4F 44F - - - - - 0 mhos 0 None None 0.09 in 0.0 iph
04/16/2014 17:30 Dry 63.1F 44F - - - - - 0 mhos 0 None None 0.09 in 0.0 iph
04/16/2014 17:25 Dry 63.9F 44F - - - - - 0 mhos 0 None None 0.09 in 0.0 iph
04/16/2014 17:15 Dry 61.3F 44F - - - - - 0 mhos 0 Unidentified Slight 0.09 in 0.0 iph
04/16/2014 17:15 Dry 61.3F 44F - - - - - 0 mhos 0 Unidentified Slight 0.09 in 0.0 iph
04/16/2014 17:05 Dry 62.4F 43F - - - - - 0 mhos 0 None None 0.09 in 0.0 iph
04/16/2014 17:00 Dry 64.2F 43F - - - - - 0 mhos 0 None None 0.09 in 0.0 iph
04/16/2014 16:55 Dry 63.5F 43F - - - - - 0 mhos 0 None None 0.11 in 0.0 iph
04/16/2014 16:45 Dry 63.1F 43F - - - - - 0 mhos 0 None None 0.11 in 0.0 iph
04/16/2014 16:45 Dry 63.1F 43F - - - - - 0 mhos 0 None None 0.11 in 0.0 iph
04/16/2014 16:35 Dry 61.7F 43F - - - - - 0 mhos 0 None None 0.11 in 0.0 iph
04/16/2014 16:30 Dry 62.4F 43F - - - - - 0 mhos 0 None None 0.11 in 0.0 iph
04/16/2014 16:25 Dry 61.7F 43F - - - - - 0 mhos 0 None None 0.11 in 0.0 iph
04/16/2014 16:15 Dry 62.4F 43F - - - - - 0 mhos 0 None None 0.11 in 0.0 iph
Date/Time
(MDT)
Sf
Temp Chem Water Layer Surface Precipitation
Sf Sub Frz Factor Pct Depth IcePct Cond Salin Type Intens Accum Rate
04/16/2014 16:15 Dry 62.4F 43F - - - - - 0 mhos 0 None None 0.11 in 0.0 iph
04/16/2014 16:05 Dry 63.3F 43F - - - - - 0 mhos 0 Unidentified Slight 0.11 in 0.0 iph
04/16/2014 16:00 Dry 61.0F 43F - - - - - 0 mhos 0 None None 0.11 in 0.0 iph
04/16/2014 15:55 Dry 59.5F 43F - - - - - 0 mhos 0 Unidentified Slight 0.11 in 0.0 iph
04/16/2014 15:45 Dry 61.0F 43F - - - - - 0 mhos 0 None None 0.11 in 0.0 iph
04/16/2014 15:45 Dry 61.0F 43F - - - - - 0 mhos 0 None None 0.11 in 0.0 iph
04/16/2014 15:35 Dry 62.8F 43F - - - - - 0 mhos 0 Unidentified Moderate 0.11 in 0.0 iph
04/16/2014 15:30 Dry 60.6F 43F - - - - - 0 mhos 0 Unidentified Moderate 0.11 in 0.0 iph
04/16/2014 15:25 Dry 60.6F 43F - - - - - 0 mhos 0 Unidentified Slight 0.11 in 0.0 iph
04/16/2014 15:15 Dry 58.1F 43F - - - - - 0 mhos 0 Unidentified Slight 0.11 in 0.0 iph
04/16/2014 15:15 Dry 58.1F 43F - - - - - 0 mhos 0 Unidentified Slight 0.11 in 0.0 iph
04/16/2014 15:05 Wet 58.5F 43F 32F 95 0% 0.00 in 0% 0 mhos 0 None None 0.11 in 0.0 iph
04/16/2014 15:00 Wet 58.3F 43F 32F 70 0% 0.00 in 0% 0 mhos 0 None None 0.11 in 0.0 iph
04/16/2014 14:55 Wet 58.1F 43F 32F 85 0% 0.00 in 0% 0 mhos 1 Unidentified Slight 0.11 in 0.0 iph
04/16/2014 14:45 Wet 58.1F 43F 32F 65 0% 0.00 in 0% 0 mhos 1 Unidentified Slight 0.11 in 0.0 iph
Date/Time
(MDT)
Sf
Temp Chem Water Layer Surface Precipitation
Sf Sub Frz Factor Pct Depth IcePct Cond Salin Type Intens Accum Rate
04/16/2014 14:45 Wet 58.1F 43F 32F 65 0% 0.00 in 0% 0 mhos 1 Unidentified Slight 0.11 in 0.0 iph
04/16/2014 14:35 Wet 57.2F 43F 32F 75 0% 0.00 in 0% 0 mhos 2 Unidentified Slight 0.11 in 0.0 iph
04/16/2014 14:30 Wet 56.7F 43F 32F 75 0% 0.90 in 0% 0 mhos 2 Unidentified Slight 0.11 in 0.0 iph
04/16/2014 14:25 Wet 55.8F 43F 32F 80 0% 0.40 in 0% 0 mhos 3 Unidentified Moderate 0.11 in 0.0 iph
04/16/2014 14:15 Wet 56.5F 43F 32F 85 0% 0.20 in 0% 0 mhos 4 None None 0.11 in 0.0 iph
04/16/2014 14:15 Wet 56.5F 43F 32F 85 0% 0.20 in 0% 0 mhos 4 None None 0.11 in 0.0 iph
04/16/2014 14:05 Wet 54.7F 43F 32F 80 0% 0.40 in 0% 0 mhos 3 Snow Slight 0.11 in 0.0 iph
04/16/2014 14:00 Wet 54.7F 43F 32F 85 0% 0.00 in 0% 0 mhos 2 Snow Slight 0.11 in 0.0 iph
04/16/2014 13:55 Dry 57.0F 43F - - - - - 0 mhos 0 Unidentified Moderate 0.11 in 0.0 iph
04/16/2014 13:45 Dry 58.6F 43F - - - - - 0 mhos 0 Unidentified Moderate 0.11 in 0.0 iph
04/16/2014 13:45 Dry 58.6F 43F - - - - - 0 mhos 0 Snow Slight 0.11 in 0.0 iph
04/16/2014 13:35 Dry 62.4F 43F - - - - - 0 mhos 0 Unidentified Slight 0.11 in 0.0 iph
04/16/2014 13:30 Dry 61.5F 43F - - - - - 0 mhos 0 Unidentified Moderate 0.11 in 0.0 iph
04/16/2014 13:25 Dry 60.4F 43F - - - - - 0 mhos 0 Unidentified Slight 0.11 in 0.0 iph
04/16/2014 13:15 Dry 58.5F 43F - - - - - 0 mhos 0 Unidentified Slight 0.12 in 0.0 iph
Date/Time
(MDT)
Sf
Temp Chem Water Layer Surface Precipitation
Sf Sub Frz Factor Pct Depth IcePct Cond Salin Type Intens Accum Rate
04/16/2014 13:15 Dry 58.5F 43F - - - - - 0 mhos 0 Unidentified Slight 0.12 in 0.0 iph
04/16/2014 13:05 Dry 58.3F 43F - - - - - 0 mhos 0 None None 0.14 in 0.0 iph
04/16/2014 13:00 Dry 59.9F 43F - - - - - 0 mhos 0 None None 0.14 in 0.0 iph
04/16/2014 12:55 Dry 59.2F 43F - - - - - 0 mhos 0 None None 0.15 in 0.0 iph
04/16/2014 12:45 Dry 57.4F 43F - - - - - 0 mhos 0 None None 0.16 in 0.0 iph
04/16/2014 12:44 Dry 57.4F 43F - - - - - 0 mhos 0 None None 0.16 in 0.0 iph
04/16/2014 12:34 Dry 56.3F 43F - - - - - 0 mhos 0 Unidentified Slight 0.17 in 0.0 iph
04/16/2014 12:30 Dry 57.0F 43F - - - - - 0 mhos 0 None None 0.17 in 0.0 iph
04/16/2014 12:24 Dry 55.8F 43F - - - - - 0 mhos 0 None None 0.19 in 0.0 iph
04/16/2014 12:15 Dry 55.9F 43F - - - - - 0 mhos 0 Unidentified Slight 0.21 in 0.0 iph
04/16/2014 12:14 Dry 55.9F 43F - - - - - 0 mhos 0 None None 0.21 in 0.0 iph
04/16/2014 12:04 Dry 56.1F 43F - - - - - 0 mhos 0 None None 0.22 in 0.0 iph
04/16/2014 12:00 Dry 57.2F 43F - - - - - 0 mhos 0 None None 0.22 in 0.0 iph
04/16/2014 11:54 Dry 57.2F 43F - - - - - 0 mhos 0 None None 0.23 in 0.0 iph
04/16/2014 11:45 Dry 57.6F 43F - - - - - 0 mhos 0 None None 0.24 in 0.0 iph
Date/Time
(MDT)
Sf
Temp Chem Water Layer Surface Precipitation
Sf Sub Frz Factor Pct Depth IcePct Cond Salin Type Intens Accum Rate
04/16/2014 11:44 Dry 56.8F 43F - - - - - 0 mhos 0 None None 0.24 in 0.0 iph
04/16/2014 11:34 Dry 57.2F 43F - - - - - 0 mhos 0 None None 0.26 in 0.0 iph
04/16/2014 11:30 Dry 54.7F 43F - - - - - 0 mhos 0 None None 0.26 in 0.0 iph
04/16/2014 11:24 Dry 53.6F 43F - - - - - 0 mhos 0 None None 0.26 in 0.0 iph
04/16/2014 11:15 Dry 54.3F 43F - - - - - 0 mhos 0 None None 0.28 in 0.0 iph
04/16/2014 11:14 Dry 54.9F 43F - - - - - 0 mhos 0 None None 0.28 in 0.0 iph
04/16/2014 11:04 Dry 54.5F 43F - - - - - 0 mhos 0 None None 0.28 in 0.0 iph
04/16/2014 11:00 Dry 54.1F 43F - - - - - 0 mhos 0 None None 0.28 in 0.0 iph
04/16/2014 10:54 Dry 54.1F 43F - - - - - 0 mhos 0 None None 0.28 in 0.0 iph
04/16/2014 10:45 Dry 53.4F 44F - - - - - 0 mhos 0 None None 0.29 in 0.0 iph
04/16/2014 10:44 Dry 53.4F 44F - - - - - 0 mhos 0 None None 0.29 in 0.0 iph
04/16/2014 10:34 Dry 55.4F 44F - - - - - 0 mhos 0 None None 0.29 in 0.0 iph
04/16/2014 10:30 Dry 54.3F 44F - - - - - 0 mhos 0 None None 0.29 in 0.0 iph
04/16/2014 10:24 Dry 53.6F 44F - - - - - 0 mhos 0 None None 0.29 in 0.0 iph
04/16/2014 10:15 Dry 52.2F 44F - - - - - 0 mhos 0 None None 0.29 in 0.0 iph
Date/Time
(MDT)
Sf
Temp Chem Water Layer Surface Precipitation
Sf Sub Frz Factor Pct Depth IcePct Cond Salin Type Intens Accum Rate
04/16/2014 10:14 Dry 51.8F 44F - - - - - 0 mhos 0 None None 0.29 in 0.0 iph
04/16/2014 10:04 Dry 49.6F 44F - - - - - 0 mhos 0 None None 0.29 in 0.0 iph
04/16/2014 10:00 Dry 48.4F 44F - - - - - 0 mhos 0 None None 0.29 in 0.0 iph
04/16/2014 09:54 Dry 47.1F 44F - - - - - 0 mhos 0 None None 0.30 in 0.0 iph
04/16/2014 09:45 Dry 47.5F 44F - - - - - 0 mhos 0 None None 0.30 in 0.0 iph
04/16/2014 09:44 Dry 47.5F 44F - - - - - 0 mhos 0 None None 0.30 in 0.0 iph
04/16/2014 09:34 Dry 47.1F 44F - - - - - 0 mhos 0 None None 0.30 in 0.0 iph
04/16/2014 09:30 Dry 46.8F 44F - - - - - 0 mhos 0 None None 0.30 in 0.0 iph
Change End Date:
Copyright © 1998-2005 Surface Systems, Inc.
All Rights Reserved
Send comments about the data to:
SCAN Web ® is a registered trademark of Surface Systems, Inc.
SCAN Web Version 5.6